Time,TemperatureF,DewpointF,PressureIn,WindDirection,WindDirectionDegrees,WindSpeedMPH,WindSpeedGustMPH,Humidity,HourlyPrecipIn,Conditions,Clouds,dailyrainin,SolarRadiationWatts/m^2,SoftwareType,DateUTC
2013-01-15 00:00:00,4.0,2.0,-100.00,SSE,159,0.0,1.0,88,-99.99,,,-99.99,0.000000,,2013-01-15 07:00:00,
2013-01-15 00:53:00,4.0,2.0,-100.00,SSE,159,0.0,1.0,88,-99.99,,,-99.99,0.000000,,2013-01-15 07:53:00,
2013-01-15 01:00:00,4.0,1.0,-100.00,SSE,163,0.0,0.0,87,-99.99,,,-99.99,0.000000,,2013-01-15 08:00:00,
2013-01-15 01:53:00,4.0,1.0,-100.00,SSE,163,0.0,0.0,87,-99.99,,,-99.99,0.000000,,2013-01-15 08:53:00,
2013-01-15 02:00:00,4.0,2.0,-100.00,SSE,158,0.0,0.0,88,-99.99,,,-99.99,0.000000,,2013-01-15 09:00:00,
2013-01-15 02:52:00,4.0,2.0,-100.00,SSE,158,0.0,0.0,88,-99.99,,,-99.99,0.000000,,2013-01-15 09:52:00,
2013-01-15 03:00:00,3.0,-1.0,-100.00,South,182,0.0,1.0,86,-99.99,,,0.01,0.000000,,2013-01-15 10:00:00,
2013-01-15 03:52:00,3.0,-1.0,-100.00,South,182,0.0,1.0,86,-99.99,,,0.01,0.000000,,2013-01-15 10:52:00,
2013-01-15 04:00:00,3.0,0.0,-100.00,SSW,192,0.0,1.0,87,-99.99,,,0.01,0.000000,,2013-01-15 11:00:00,
2013-01-15 04:53:00,3.0,0.0,-100.00,SSW,192,0.0,1.0,87,-99.99,,,0.01,0.000000,,2013-01-15 11:53:00,
2013-01-15 05:00:00,1.0,-2.0,-100.00,South,183,0.0,1.0,86,-99.99,,,0.01,0.000000,,2013-01-15 12:00:00,
2013-01-15 05:53:00,1.0,-2.0,-100.00,South,183,0.0,1.0,86,-99.99,,,0.01,0.000000,,2013-01-15 12:53:00,
2013-01-15 06:00:00,-4.0,-8.0,-100.00,South,170,0.0,0.0,84,-99.99,,,0.01,0.000000,,2013-01-15 13:00:00,
2013-01-15 06:53:00,-4.0,-8.0,-100.00,South,170,0.0,0.0,84,-99.99,,,0.01,0.000000,,2013-01-15 13:53:00,
2013-01-15 07:00:00,-7.0,-99.9,-100.00,North,-999,-999.0,-999.0,-999,-99.99,,,0.01,,,2013-01-15 14:00:00,
2013-01-15 07:54:00,-7.0,-99.9,-100.00,North,-999,-999.0,-999.0,-999,-99.99,,,0.01,,,2013-01-15 14:54:00,
2013-01-15 08:00:00,-8.0,-12.0,-100.00,SSE,149,0.0,0.0,82,-99.99,,,0.00,1.200000,,2013-01-15 15:00:00,
2013-01-15 08:53:00,-8.0,-12.0,-100.00,SSE,149,0.0,0.0,82,-99.99,,,0.00,1.200000,,2013-01-15 15:53:00,
2013-01-15 10:00:00,8.0,5.0,-100.00,South,177,0.0,1.0,85,-99.99,,,-99.99,29.900000,,2013-01-15 17:00:00,
2013-01-15 10:53:00,8.0,5.0,-100.00,South,177,0.0,1.0,85,-99.99,,,-99.99,29.900000,,2013-01-15 17:53:00,
2013-01-15 11:00:00,17.0,10.0,-100.00,WSW,249,0.0,2.0,72,-99.99,,,0.00,69.000000,,2013-01-15 18:00:00,
2013-01-15 12:00:00,19.0,9.0,-100.00,WNW,302,0.0,2.0,62,-99.99,,,0.01,129.699997,,2013-01-15 19:00:00,
2013-01-15 12:53:00,19.0,9.0,-100.00,WNW,302,0.0,2.0,62,-99.99,,,0.01,129.699997,,2013-01-15 19:53:00,
2013-01-15 13:00:00,20.0,8.0,-100.00,WNW,285,0.0,0.0,57,-99.99,,,0.02,176.699997,,2013-01-15 20:00:00,
2013-01-15 13:53:00,20.0,8.0,-100.00,WNW,285,0.0,0.0,57,-99.99,,,0.02,176.699997,,2013-01-15 20:53:00,
2013-01-15 15:00:00,21.0,4.0,-100.00,WNW,293,0.0,2.0,47,-99.99,,,0.01,209.399994,,2013-01-15 22:00:00,
2013-01-15 15:53:00,21.0,4.0,-100.00,WNW,293,0.0,2.0,47,-99.99,,,0.01,209.399994,,2013-01-15 22:53:00,
2013-01-15 16:00:00,14.0,1.0,-100.00,West,271,1.0,2.0,56,-99.99,,,0.01,32.400002,,2013-01-15 23:00:00,
2013-01-15 16:53:00,14.0,1.0,-100.00,West,271,1.0,2.0,56,-99.99,,,0.01,32.400002,,2013-01-15 23:53:00,
2013-01-15 17:00:00,13.0,3.0,-100.00,SSW,209,0.0,2.0,65,-99.99,,,0.00,10.700000,,2013-01-16 00:00:00,
2013-01-15 17:53:00,13.0,3.0,-100.00,SSW,209,0.0,2.0,65,-99.99,,,0.00,10.700000,,2013-01-16 00:53:00,
2013-01-15 18:00:00,9.0,3.0,-100.00,SSE,158,0.0,2.0,77,-99.99,,,0.00,0.300000,,2013-01-16 01:00:00,
2013-01-15 18:53:00,9.0,3.0,-100.00,SSE,158,0.0,2.0,77,-99.99,,,0.00,0.300000,,2013-01-16 01:53:00,
2013-01-15 21:00:00,6.0,0.0,-100.00,South,179,1.0,3.0,75,-99.99,,,0.00,0.000000,,2013-01-16 04:00:00,
2013-01-15 21:52:00,6.0,0.0,-100.00,South,179,1.0,3.0,75,-99.99,,,0.00,0.000000,,2013-01-16 04:52:00,